DELTA 1 DEB, 10711

Orbit data source: Space-Track

DELTA 1 DEB, 10711 is space debris in SSO originally from a launch on Thu, 29 Jul 1976 UTC launched from the Air Force Western Test Range (AFWTR). Debris objects in space refer to the collection of defunct objects orbiting the Earth. Examples of debris include non-operational satellites, rocket bodies, and fragments generated from explosions, collisions, or faulty payload assembly.

Loading next visibility...
Identifier
10711, 1976-077AG
Orbit
SSO
Country
Flag of USUS
Related business
Manufacturer
Unknown
Mission
Spacecraft
Bus & Motor
Unknown
Mass
Unknown
Launch date (UTC)
1976-07-29 (50 years ago)
Launch vehicle
Unknown
Launch site
Air Force Western Test Range (AFWTR)
Object type
Payload
Rocket body
Debris
Shape & HBR
Unknown shape, 0.1 m
Radar Cross Section
Small (<0.1 m²)

Expand to show TLE details & history
Last TLE update: 7 hours ago

TLE from 7 hours ago
0 DELTA 1 DEB
1 10711U 76077AG  26122.88470816 -.00000053  00000-0 -61253-4 0  9993
2 10711 102.4888 107.3037 0063599 156.8086 274.2808 12.29245912233163
Epoch: 2026-05-02T21:13Z
TLE epoch observation values (Epoch: 2026-05-02T21:13:58.785Z)
Latitude
66.94176°
Longitude
-103.17206°
Altitude
1,560.456 km
Speed
7.095 km/s
True Right ascension
05h 04m 28s
True Declination
66° 49' 48"
Sunlit
Object was in daylight at epoch
Visualization orbit readout
Latitude
Unknown
Longitude
Unknown
Altitude
Unknown
Speed
Unknown
Apparent Right ascension
Unknown
Apparent Declination
Unknown
Sunlit
N/A
Visualization observer readout
Local Sidereal Time
12:08:31
Azimuth
Unknown
Elevation
Unknown
Doppler factor
Unknown
Orbital elements
Apogee altitude
1,600.564 km
Perigee altitude
1,499.718 km
Semi-major axis
7,928.278 km
Eccentricity
0.00636
Inclination
102.4888°
RAAN
107.3037°
Arg. of periapsis
156.8086°
True anomaly
273.55363°
Mean anomaly
274.2808°
Eccentric anomaly
273.91726°
Mean motion
3.0745 °/min
Orbital period
117.09 mins
BSTAR
-0.000061253
Loading maneuver chart data...
Computing Atmospheric mass density...
Loading historical data...
Loading historical data...
Loading historical data...
Loading historical data...
Loading historical data...
Loading historical data...
Loading historical data...

Documentation

Showing up to 5 results
|